Volver al catálogo

SCOUT G-1 DEB

ActivoPO
NORAD 28672·DEBRIS·🇺🇸 United States

Lanzado Aug 25, 1988 desde Vandenberg Space Force Base

Loading…

Próximos Pases (próximas 24 horas)

TLE

EnvejeciendoSource: Space-Track

Época: Sep 9, 2026, 14:53 UTC

1 28672U 88074H   26252.62025240  .00000955  00000-0  12392-2 0  9998
2 28672  90.0062   9.8959 0086115  81.0873 295.2104 13.59844687642888

Sigue SCOUT G-1 DEB en tiempo real con AllMySat

Download on the App Store